This demonstration page uses our WeatherBlox Daily Observations layout. Learn more.

Left ArrowRight Arrow

40.92501, -98.34201

Hourly Observations for June 1, 2020

Temp ( °F °C ) Dew Point ( °F °C ) Humidity (%) Winds ( mph kmh ) Pressure ( in mb ) Visibility ( mi km ) Precip ( " mm )
12:53 am 00:53 Clear 73 22.8 59 15 62 62 SSE 20 31 29.95 1014 10 16 0.00 0.00
1:53 am 01:53 Clear 71 21.7 59 15 66 66 S 17 28 29.94 1014 10 16 0.00 0.00
2:53 am 02:53 Clear 70 21.1 58 14.4 66 66 S 16 26 29.93 1014 10 16 0.00 0.00
3:53 am 03:53 Clear 69 20.6 58 14.4 68 68 S 10 17 29.94 1014 10 16 0.00 0.00
4:53 am 04:53 Clear 69 20.6 57 13.9 66 66 S 16 26 29.91 1013 10 16 0.00 0.00
5:53 am 05:53 Clear 69 20.6 55 12.8 61 61 S 17 28 29.91 1013 10 16 0.00 0.00
6:53 am 06:53 Sunny 71 21.7 54 12.2 55 55 SSW 20 31 29.92 1013 10 16 0.00 0.00
7:53 am 07:53 Sunny 72 22.2 55 12.8 55 55 SSW 21 33 29.91 1013 10 16 0.00 0.00
8:53 am 08:53 Sunny 74 23.3 55 12.8 52 52 SW 23 37 29.91 1013 10 16 0.00 0.00
9:53 am 09:53 Sunny 76 24.4 56 13.3 50 50 SSW 20 31 29.91 1013 10 16 0.00 0.00
10:53 am 10:53 Sunny 78 25.6 56 13.3 47 47 SW 25 41 29.90 1013 10 16 0.00 0.00
11:53 am 11:53 Sunny 85 29.4 58 14.4 40 40 SSW 18 30 29.90 1012 10 16 0.00 0.00
12:53 pm 12:53 Sunny 87 30.6 58 14.4 37 37 SSW 20 31 29.88 1012 10 16 0.00 0.00
1:53 pm 13:53 Sunny 90 32.2 60 15.6 37 37 SSW 15 24 29.86 1011 10 16 0.00 0.00
2:53 pm 14:53 Sunny 93 33.9 60 15.6 33 33 SSW 20 31 29.85 1011 10 16 0.00 0.00
3:53 pm 15:53 Sunny 94 34.4 60 15.6 32 32 SSW 28 44 29.83 1010 10 16 0.00 0.00
4:53 pm 16:53 Sunny 95 35 58 14.4 29 29 SSW 18 30 29.82 1010 10 16 0.00 0.00
5:53 pm 17:53 Sunny 95 35 60 15.6 31 31 SSW 20 31 29.81 1010 10 16 0.00 0.00
6:53 pm 18:53 Sunny 93 33.9 60 15.6 33 33 SSW 18 30 29.81 1010 10 16 0.00 0.00
7:53 pm 19:53 Sunny 90 32.2 58 14.4 34 34 S 18 30 29.82 1010 10 16 0.00 0.00
8:53 pm 20:53 Sunny 85 29.4 58 14.4 40 40 SSW 15 24 29.83 1010 10 16 0.00 0.00
9:53 pm 21:53 Clear 82 27.8 57 13.9 42 42 S 14 22 29.85 1011 10 16 0.00 0.00
10:53 pm 22:53 Clear 80 26.7 59 15 49 49 SSW 20 31 29.87 1012 10 16 0.00 0.00
11:53 pm 23:53 Clear 79 26.1 58 14.4 49 49 SSW 18 30 29.87 1012 10 16 0.00 0.00

Powered by AerisWeather